Location: *
(44.1392°N, 4.8079°E)
Time: 06:22:19
(UTC+00:00)

S3M - Pass Details

Date: 21 June 2021
Orbit: 950 x 1003 km, 83.0° (Epoch: 31 July)

Event Time Altitude Azimuth Distance (km) Brightness Sun altitude
Rises 02:34:25 0° 349° (N) 3,643 7.6 -11.8°
Reaches altitude 10° 02:36:55 10° 347° (NNW) 2,698 6.9 -11.5°
Maximum altitude 02:43:02 69° 266° (W) 1,029 4.0 -10.8°
Drops below altitude 10° 02:49:12 10° 184° (S) 2,713 5.9 -10.1°
Enters shadow 02:50:58 - 183° (S) 3,381 6.4 -9.9°
